Flag for Estonia Weather past 2 weeks in Tallinn, Estonia

Now
36 °F

Drizzle. Low clouds.


Feels Like: 27 °F
Forecast: 33 / 38 °F
Wind: 13 mph from Northeast

Location: Tallinn

Current Time: Apr 2, 2015 at 7:42:06 AM

Latest Report: Apr 2, 2015 at 7:20 AM


Visibility: N/A

Pressure: 29.24 "Hg

Humidity: 93%

Dew point: 34 °F

Location of TallinnLocation

Historic Weather in Tallinn — Graph

°F

Tallinn temperature yesterday

Maximum temperature yesterday: 43 °F (at 12:50 PM)
Minimum temperature yesterday: 30 °F (at 2:50 AM)
Average temperature yesterday: 37 °F

Past Weeks' High & Low Weather Summary

 TemperatureHumidityPressure
High59 °F (Mar 18, 2:50 PM)100% (Mar 20, 10:50 PM)30.77 "Hg (Mar 20, 10:50 PM)
Low21 °F (Mar 26, 5:20 AM)14% (Mar 18, 3:20 PM)28.85 "Hg (Mar 31, 3:50 AM)
Average36 °F73%29.81 "Hg
* Reported Mar 18 5:20 AM — Apr 2 6:50 AM, Tallinn, Weather by CustomWeather, © 2015

Note: Actual official high and low records may vary slightly from our data, if they occured in-between our weather recording intervals... More about our weather records

Advertising

Tallinn weather history for previous 24 hours

 ConditionsComfort  
Time TempWeatherWind HumidityBarometerVisibility
6:50 AM
Thu, Apr 2
36 °FLow clouds.12 mph93%29.24 "HgN/A
6:20 AM36 °FLight rain. Low clouds.10 mph93%29.24 "HgN/A
5:50 AM36 °FLight rain. Low clouds.12 mph93%29.24 "HgN/A
5:20 AM36 °FLight rain. Low clouds.12 mph93%29.24 "HgN/A
4:50 AM36 °FLight rain. Low clouds.12 mph93%29.24 "HgN/A
4:20 AM36 °FLight rain. Low clouds.10 mph100%29.24 "HgN/A
3:50 AM36 °FLight rain. Mostly cloudy.9 mph100%29.24 "HgN/A
3:20 AM36 °FLight rain. Low clouds.9 mph100%29.24 "HgN/A
2:50 AM36 °FLight rain. Low clouds.9 mph100%29.24 "HgN/A
2:20 AM37 °FLight rain. Mostly cloudy.9 mph93%29.24 "HgN/A
1:50 AM37 °FLight rain. Mostly cloudy.8 mph93%29.24 "HgN/A
1:20 AM37 °FLight rain. Mostly cloudy.8 mph93%29.24 "HgN/A
12:50 AM37 °FDrizzle. Low clouds.8 mph93%29.27 "HgN/A
12:20 AM37 °FDrizzle. Low clouds.8 mph93%29.27 "HgN/A
11:50 PM
Wed, Apr 1
37 °FDrizzle. Low clouds.10 mph93%29.27 "HgN/A
11:20 PM37 °FLight rain. Mostly cloudy.9 mph93%29.27 "HgN/A
10:50 PM37 °FLight rain. Passing clouds.10 mph93%29.27 "HgN/A
10:20 PM37 °FLight rain. Mostly cloudy.8 mph93%29.27 "HgN/A
9:50 PM37 °FLight rain. Mostly cloudy.7 mph93%29.27 "HgN/A
9:20 PM37 °FLight rain. Mostly cloudy.8 mph93%29.27 "HgN/A
8:50 PM37 °FLight rain. More clouds than sun.9 mph93%29.27 "HgN/A
8:20 PM37 °FLight rain. Mostly cloudy.12 mph93%29.27 "HgN/A
7:50 PM39 °FLight rain. Mostly cloudy.13 mph87%29.27 "Hg5 mi
7:20 PM39 °FLight rain. Overcast.12 mph87%29.27 "Hg5 mi
6:50 PM39 °FScattered clouds.10 mph87%29.27 "HgN/A
6:20 PM39 °FPassing clouds.12 mph87%29.24 "HgN/A
5:50 PM39 °FPartly sunny.14 mph87%29.24 "HgN/A
5:20 PM43 °FPassing clouds.12 mph76%29.24 "HgN/A
4:50 PM43 °FPartly sunny.14 mph76%29.24 "HgN/A
4:20 PM43 °FPartly sunny.10 mph76%29.24 "HgN/A
3:50 PM41 °FOvercast.14 mph81%29.24 "HgN/A
3:20 PM41 °FOvercast.13 mph81%29.24 "HgN/A
2:50 PM41 °FOvercast.12 mph81%29.24 "HgN/A
2:20 PM43 °FOvercast.12 mph81%29.24 "HgN/A
1:50 PM43 °FPartly sunny.10 mph81%29.24 "HgN/A
1:20 PM43 °FPartly sunny.13 mph76%29.24 "HgN/A
12:50 PM43 °FScattered clouds.6 mph81%29.24 "HgN/A
12:20 PM41 °FScattered clouds.6 mph81%29.24 "HgN/A
11:50 AM39 °FPassing clouds.6 mph87%29.24 "HgN/A
11:20 AM39 °FScattered clouds.9 mph87%29.21 "HgN/A
10:50 AM37 °FLow clouds.9 mph93%29.24 "HgN/A
10:20 AM37 °FLow clouds.10 mph93%29.21 "HgN/A
9:50 AM36 °FPartly sunny.10 mph93%29.21 "HgN/A
9:20 AM36 °FPassing clouds.9 mph93%29.21 "HgN/A
8:50 AM34 °FPassing clouds.9 mph100%29.21 "HgN/A
8:20 AM34 °FPassing clouds.8 mph100%29.21 "HgN/A
7:50 AM34 °FScattered clouds.7 mph100%29.21 "HgN/A
7:20 AM32 °FPassing clouds.6 mph100%29.21 "HgN/A
Weather by CustomWeather, © 2015

See weather overviewHow to use our weather pages